| time (UTC) | temp F | wind direction | speed MPH | gust MPH | rain 1hr in | rain 24hr in | rain mn in | humidity % | barometer mb |
| 20260510210631 | 84 | 279 | 2.0 | 5.0 | 0.00 | 0.09 | 0.04 | 61 | 1015.3 |
| 20260510205630 | 84 | 279 | 2.0 | 6.0 | 0.00 | 0.09 | 0.04 | 60 | 1015.4 |
| 20260510205129 | 85 | 263 | 2.0 | 6.0 | 0.00 | 0.09 | 0.04 | 60 | 1015.2 |
| 20260510204631 | 85 | 275 | 2.0 | 4.0 | 0.00 | 0.09 | 0.04 | 60 | 1015.2 |
| 20260510204130 | 85 | 275 | 2.0 | 4.0 | 0.00 | 0.09 | 0.04 | 58 | 1015.4 |
| 20260510203629 | 84 | 279 | 2.0 | 4.0 | 0.00 | 0.09 | 0.04 | 59 | 1015.4 |
| 20260510203131 | 84 | 273 | 2.0 | 6.0 | 0.00 | 0.09 | 0.04 | 60 | 1015.3 |
| 20260510202646 | 84 | 275 | 2.0 | 6.0 | 0.00 | 0.09 | 0.04 | 60 | 1015.3 |
| 20260510202130 | 84 | 276 | 2.0 | 6.0 | 0.00 | 0.09 | 0.04 | 62 | 1015.4 |
| 20260510201132 | 84 | 287 | 3.0 | 7.0 | 0.00 | 0.09 | 0.04 | 60 | 1015.5 |
| 20260510200629 | 84 | 293 | 2.0 | 5.0 | 0.00 | 0.09 | 0.04 | 62 | 1015.5 |
| 20260510200130 | 83 | 216 | 2.0 | 5.0 | 0.00 | 0.09 | 0.04 | 64 | 1015.5 |
| 20260510195636 | 83 | 215 | 3.0 | 5.0 | 0.00 | 0.09 | 0.04 | 63 | 1015.5 |
| 20260510195129 | 83 | 204 | 2.0 | 6.0 | 0.00 | 0.09 | 0.04 | 63 | 1015.7 |
| 20260510194630 | 83 | 206 | 1.0 | 6.0 | 0.00 | 0.09 | 0.04 | 64 | 1015.7 |
| 20260510193629 | 83 | 251 | 2.0 | 6.0 | 0.00 | 0.09 | 0.04 | 62 | 1015.7 |
| 20260510193120 | 82 | 250 | 2.0 | 6.0 | 0.00 | 0.09 | 0.04 | 65 | 1015.8 |
| 20260510192620 | 83 | 221 | 2.0 | 6.0 | 0.00 | 0.09 | 0.04 | 65 | 1016.0 |
| 20260510192119 | 83 | 212 | 3.0 | 6.0 | 0.00 | 0.10 | 0.04 | 66 | 1016.1 |
| 20260510191620 | 82 | 256 | 2.0 | 6.0 | 0.00 | 0.10 | 0.04 | 65 | 1016.1 |
| 20260510191122 | 82 | 262 | 3.0 | 9.0 | 0.00 | 0.10 | 0.04 | 65 | 1016.2 |
| 20260510190619 | 83 | 287 | 4.0 | 9.0 | 0.00 | 0.10 | 0.04 | 64 | 1016.1 |
| 20260510185618 | 83 | 50 | 3.0 | 5.0 | 0.00 | 0.10 | 0.04 | 71 | 1016.3 |
| 20260510184119 | 82 | 300 | 1.0 | 3.0 | 0.00 | 0.10 | 0.04 | 66 | 1016.3 |
| 20260510183614 | 82 | 300 | 1.0 | 4.0 | 0.00 | 0.10 | 0.04 | 67 | 1016.3 |
| 20260510183113 | 82 | 228 | 1.0 | 6.0 | 0.00 | 0.10 | 0.04 | 67 | 1016.3 |
| 20260510182614 | 82 | 228 | 2.0 | 7.0 | 0.00 | 0.11 | 0.04 | 68 | 1016.6 |
| 20260510182113 | 81 | 140 | 2.0 | 7.0 | 0.00 | 0.11 | 0.04 | 68 | 1016.6 |
| 20260510181614 | 82 | 141 | 2.0 | 5.0 | 0.00 | 0.11 | 0.04 | 68 | 1016.6 |
| 20260510181112 | 82 | 179 | 3.0 | 8.0 | 0.00 | 0.12 | 0.04 | 71 | 1016.6 |
| 20260510180612 | 81 | 181 | 3.0 | 8.0 | 0.00 | 0.12 | 0.04 | 70 | 1016.7 |
| 20260510180108 | 81 | 216 | 2.0 | 6.0 | 0.00 | 0.13 | 0.04 | 69 | 1016.8 |
| 20260510174617 | 80 | 243 | 3.0 | 6.0 | 0.00 | 0.14 | 0.04 | 71 | 1016.8 |
| 20260510174112 | 81 | 260 | 3.0 | 6.0 | 0.00 | 0.14 | 0.04 | 71 | 1016.9 |
| 20260510173603 | 80 | 253 | 3.0 | 6.0 | 0.00 | 0.14 | 0.04 | 72 | 1016.9 |
| 20260510173124 | 80 | 266 | 3.0 | 6.0 | 0.00 | 0.14 | 0.04 | 69 | 1017.1 |
| 20260510172604 | 80 | 267 | 3.0 | 7.0 | 0.00 | 0.15 | 0.04 | 69 | 1017.0 |
| 20260510172104 | 80 | 246 | 3.0 | 7.0 | 0.00 | 0.15 | 0.04 | 69 | 1017.1 |
| 20260510171603 | 80 | 269 | 3.0 | 7.0 | 0.00 | 0.17 | 0.04 | 70 | 1017.1 |
| 20260510171101 | 81 | 306 | 2.0 | 7.0 | 0.00 | 0.18 | 0.04 | 69 | 1017.1 |
| 20260510170605 | 80 | 318 | 3.0 | 8.0 | 0.00 | 0.18 | 0.04 | 70 | 1017.2 |
| 20260510170113 | 80 | 320 | 3.0 | 8.0 | 0.00 | 0.19 | 0.04 | 72 | 1017.3 |
| 20260510165554 | 80 | 272 | 4.0 | 8.0 | 0.00 | 0.20 | 0.04 | 71 | 1017.2 |
| 20260510164044 | 80 | 225 | 3.0 | 10.0 | 0.00 | 0.27 | 0.04 | 73 | 1017.4 |
| 20260510163541 | 79 | 11 | 2.0 | 5.0 | 0.00 | 0.30 | 0.04 | 75 | 1017.4 |
| 20260510163041 | 78 | 9 | 2.0 | 7.0 | 0.00 | 0.31 | 0.04 | 74 | 1017.3 |
| 20260510162540 | 78 | 260 | 3.0 | 8.0 | 0.00 | 0.33 | 0.04 | 74 | 1017.4 |
| 20260510162042 | 78 | 263 | 3.0 | 8.0 | 0.00 | 0.35 | 0.04 | 77 | 1017.5 |
| 20260510161539 | 78 | 275 | 2.0 | 6.0 | 0.00 | 0.37 | 0.04 | 77 | 1017.6 |
| 20260510161042 | 78 | 275 | 1.0 | 6.0 | 0.00 | 0.39 | 0.04 | 77 | 1017.6 |
| 20260510160541 | 78 | 282 | 2.0 | 7.0 | 0.00 | 0.41 | 0.04 | 77 | 1017.6 |
| 20260510160036 | 77 | 281 | 3.0 | 8.0 | 0.00 | 0.42 | 0.04 | 77 | 1017.6 |
| 20260510154534 | 76 | 333 | 4.0 | 8.0 | 0.00 | 0.45 | 0.04 | 81 | 1017.5 |
| 20260510154037 | 76 | 334 | 4.0 | 8.0 | 0.00 | 0.45 | 0.04 | 81 | 1017.4 |
| 20260510153530 | 76 | 12 | 3.0 | 8.0 | 0.00 | 0.45 | 0.04 | 80 | 1017.5 |
| 20260510153025 | 76 | 346 | 2.0 | 7.0 | 0.00 | 0.45 | 0.04 | 83 | 1017.6 |
| 20260510152030 | 75 | 287 | 2.0 | 5.0 | 0.00 | 0.45 | 0.04 | 83 | 1017.5 |
| 20260510151025 | 74 | 287 | 2.0 | 4.0 | 0.00 | 0.45 | 0.04 | 86 | 1017.5 |
| 20260510150521 | 73 | 287 | 2.0 | 5.0 | 0.00 | 0.45 | 0.04 | 86 | 1017.4 |
| 20260510150021 | 73 | 282 | 3.0 | 5.0 | 0.00 | 0.45 | 0.04 | 86 | 1017.5 |
| 20260510145520 | 73 | 289 | 2.0 | 4.0 | 0.00 | 0.45 | 0.04 | 87 | 1017.4 |
| 20260510145019 | 73 | 291 | 1.0 | 4.0 | 0.00 | 0.45 | 0.04 | 88 | 1017.5 |
| 20260510144019 | 72 | 291 | 1.0 | 4.0 | 0.00 | 0.45 | 0.04 | 89 | 1017.3 |
| 20260510143517 | 72 | 291 | 1.0 | 4.0 | 0.00 | 0.45 | 0.04 | 90 | 1017.3 |
| 20260510143017 | 72 | 291 | 1.0 | 3.0 | 0.00 | 0.45 | 0.04 | 90 | 1017.3 |
| 20260510142516 | 71 | 291 | 1.0 | 3.0 | 0.00 | 0.45 | 0.04 | 91 | 1017.2 |
| 20260510142021 | 71 | 291 | 1.0 | 3.0 | 0.00 | 0.45 | 0.04 | 92 | 1017.2 |
| 20260510141519 | 71 | 291 | 2.0 | 4.0 | 0.00 | 0.45 | 0.04 | 93 | 1017.3 |
| 20260510141011 | 71 | 291 | 2.0 | 4.0 | 0.00 | 0.45 | 0.04 | 93 | 1017.3 |
| 20260510140509 | 71 | 292 | 2.0 | 3.0 | 0.00 | 0.45 | 0.04 | 94 | 1017.4 |
| 20260510140007 | 71 | 292 | 2.0 | 4.0 | 0.00 | 0.45 | 0.04 | 95 | 1017.3 |
| 20260510135509 | 70 | 292 | 2.0 | 4.0 | 0.00 | 0.45 | 0.04 | 94 | 1017.2 |
| 20260510135008 | 70 | 292 | 2.0 | 5.0 | 0.00 | 0.45 | 0.04 | 95 | 1017.3 |
| 20260510134507 | 70 | 292 | 3.0 | 5.0 | 0.00 | 0.45 | 0.04 | 95 | 1017.3 |
| 20260510134008 | 69 | 293 | 3.0 | 5.0 | 0.00 | 0.45 | 0.04 | 95 | 1017.2 |
| 20260510133504 | 69 | 275 | 2.0 | 4.0 | 0.00 | 0.45 | 0.04 | 96 | 1017.2 |
| 20260510132004 | 69 | 275 | 1.0 | 3.0 | 0.00 | 0.45 | 0.04 | 96 | 1016.9 |
| 20260510131007 | 69 | 275 | 1.0 | 2.0 | 0.00 | 0.45 | 0.04 | 96 | 1017.0 |
| 20260510130508 | 69 | 275 | 1.0 | 2.0 | 0.00 | 0.45 | 0.04 | 96 | 1017.0 |
| 20260510130004 | 68 | 275 | 1.0 | 2.0 | 0.00 | 0.45 | 0.04 | 96 | 1016.8 |
| 20260510125010 | 68 | 275 | 1.0 | 4.0 | 0.00 | 0.45 | 0.04 | 96 | 1016.8 |
| 20260510124503 | 68 | 275 | 1.0 | 3.0 | 0.00 | 0.45 | 0.04 | 96 | 1016.8 |
| 20260510124007 | 68 | 275 | 1.0 | 3.0 | 0.00 | 0.45 | 0.04 | 96 | 1016.8 |
| 20260510123501 | 68 | 275 | 2.0 | 3.0 | 0.00 | 0.45 | 0.04 | 96 | 1016.8 |
| 20260510123001 | 68 | 275 | 2.0 | 3.0 | 0.00 | 0.45 | 0.04 | 96 | 1016.7 |
| 20260510122501 | 68 | 275 | 1.0 | 2.0 | 0.00 | 0.45 | 0.04 | 96 | 1016.7 |
| 20260510122001 | 68 | 275 | 1.0 | 2.0 | 0.00 | 0.45 | 0.04 | 96 | 1016.6 |
| 20260510121500 | 67 | 275 | 0.0 | 2.0 | 0.00 | 0.45 | 0.04 | 96 | 1016.6 |
| 20260510121001 | 67 | 275 | 0.0 | 2.0 | 0.00 | 0.45 | 0.04 | 96 | 1016.6 |
| 20260510120502 | 67 | 275 | 1.0 | 3.0 | 0.00 | 0.45 | 0.04 | 96 | 1016.4 |
| 20260510120000 | 67 | 275 | 1.0 | 3.0 | 0.00 | 0.45 | 0.04 | 96 | 1016.4 |
| 20260510115500 | 67 | 271 | 1.0 | 3.0 | 0.00 | 0.45 | 0.04 | 96 | 1016.6 |
| 20260510115012 | 67 | 271 | 1.0 | 3.0 | 0.00 | 0.45 | 0.04 | 96 | 1016.6 |
| 20260510114502 | 67 | 271 | 0.0 | 3.0 | 0.00 | 0.45 | 0.04 | 96 | 1016.6 |
| 20260510114000 | 67 | 270 | 0.0 | 0.0 | 0.00 | 0.45 | 0.04 | 96 | 1016.5 |
| 20260510113503 | 67 | 270 | 0.0 | 0.0 | 0.00 | 0.46 | 0.04 | 96 | 1016.4 |
| 20260510113009 | 67 | 270 | 0.0 | 0.0 | 0.00 | 0.46 | 0.04 | 96 | 1016.3 |
| 20260510112517 | 67 | 270 | 0.0 | 0.0 | 0.00 | 0.46 | 0.04 | 96 | 1016.3 |
| 20260510111011 | 67 | 270 | 0.0 | 0.0 | 0.00 | 0.46 | 0.04 | 96 | 1016.1 |
| 20260510110506 | 67 | 270 | 0.0 | 0.0 | 0.00 | 0.46 | 0.04 | 96 | 1016.2 |
| 20260510110004 | 67 | 270 | 0.0 | 0.0 | 0.00 | 0.46 | 0.04 | 96 | 1016.1 |
| 20260510105505 | 67 | 270 | 0.0 | 0.0 | 0.00 | 0.46 | 0.04 | 96 | 1016.0 |
| 20260510105008 | 67 | 270 | 0.0 | 0.0 | 0.00 | 0.46 | 0.04 | 96 | 1015.9 |
| 20260510104459 | 67 | 270 | 0.0 | 0.0 | 0.00 | 0.46 | 0.04 | 96 | 1015.9 |
| 20260510103959 | 67 | 270 | 0.0 | 0.0 | 0.00 | 0.46 | 0.04 | 96 | 1015.9 |
| 20260510103458 | 67 | 270 | 0.0 | 0.0 | 0.00 | 0.46 | 0.04 | 96 | 1015.8 |
| 20260510102454 | 67 | 270 | 0.0 | 0.0 | 0.00 | 0.46 | 0.04 | 96 | 1015.6 |
| 20260510101955 | 67 | 270 | 0.0 | 0.0 | 0.00 | 0.46 | 0.04 | 96 | 1015.4 |
| 20260510101454 | 67 | 270 | 0.0 | 0.0 | 0.00 | 0.46 | 0.04 | 96 | 1015.4 |
| 20260510100455 | 67 | 270 | 0.0 | 0.0 | 0.00 | 0.46 | 0.04 | 96 | 1015.4 |
| 20260510095956 | 67 | 270 | 0.0 | 0.0 | 0.00 | 0.46 | 0.04 | 96 | 1015.3 |
| 20260510095456 | 67 | 270 | 0.0 | 0.0 | 0.00 | 0.46 | 0.04 | 96 | 1015.3 |
| 20260510094950 | 67 | 270 | 0.0 | 0.0 | 0.00 | 0.46 | 0.04 | 96 | 1015.3 |
| 20260510093950 | 67 | 270 | 0.0 | 0.0 | 0.00 | 0.46 | 0.04 | 96 | 1015.2 |
| 20260510093452 | 67 | 270 | 0.0 | 0.0 | 0.00 | 0.46 | 0.04 | 96 | 1015.2 |
| 20260510092951 | 67 | 270 | 0.0 | 0.0 | 0.00 | 0.46 | 0.04 | 96 | 1015.3 |
| 20260510092450 | 67 | 270 | 0.0 | 0.0 | 0.00 | 0.46 | 0.04 | 96 | 1015.3 |
| 20260510091951 | 67 | 270 | 0.0 | 0.0 | 0.01 | 0.46 | 0.04 | 96 | 1015.3 |
| 20260510091448 | 67 | 270 | 0.0 | 0.0 | 0.01 | 0.46 | 0.04 | 96 | 1015.2 |
| 20260510090447 | 67 | 270 | 0.0 | 0.0 | 0.01 | 0.46 | 0.04 | 96 | 1015.1 |
| 20260510085946 | 67 | 270 | 0.0 | 0.0 | 0.01 | 0.46 | 0.04 | 96 | 1015.1 |
| 20260510085450 | 67 | 270 | 0.0 | 0.0 | 0.01 | 0.46 | 0.04 | 96 | 1015.0 |
| 20260510084950 | 67 | 270 | 0.0 | 0.0 | 0.01 | 0.46 | 0.04 | 96 | 1015.0 |
| 20260510083944 | 67 | 270 | 0.0 | 0.0 | 0.01 | 0.46 | 0.04 | 96 | 1015.0 |
| 20260510083444 | 67 | 270 | 0.0 | 0.0 | 0.01 | 0.46 | 0.04 | 96 | 1015.0 |
| 20260510082942 | 67 | 270 | 0.0 | 0.0 | 0.01 | 0.46 | 0.04 | 96 | 1014.9 |
| 20260510082438 | 67 | 270 | 0.0 | 0.0 | 0.01 | 0.46 | 0.04 | 96 | 1014.8 |
| 20260510081938 | 67 | 270 | 0.0 | 0.0 | 0.00 | 0.45 | 0.03 | 96 | 1014.7 |
| 20260510081436 | 67 | 270 | 0.0 | 0.0 | 0.00 | 0.45 | 0.03 | 96 | 1014.8 |
| 20260510080934 | 67 | 270 | 0.0 | 0.0 | 0.00 | 0.45 | 0.03 | 96 | 1014.7 |
| 20260510080440 | 67 | 270 | 0.0 | 0.0 | 0.00 | 0.45 | 0.03 | 96 | 1014.7 |
| 20260510075935 | 67 | 270 | 0.0 | 0.0 | 0.00 | 0.45 | 0.03 | 96 | 1014.7 |
| 20260510075432 | 67 | 270 | 0.0 | 0.0 | 0.00 | 0.45 | 0.03 | 96 | 1014.9 |
| 20260510074926 | 67 | 270 | 0.0 | 0.0 | 0.00 | 0.45 | 0.03 | 96 | 1014.8 |
| 20260510074424 | 67 | 270 | 0.0 | 0.0 | 0.00 | 0.45 | 0.03 | 96 | 1014.9 |
| 20260510073923 | 67 | 270 | 0.0 | 0.0 | 0.00 | 0.45 | 0.03 | 96 | 1014.9 |
| 20260510072921 | 67 | 270 | 0.0 | 0.0 | 0.00 | 0.45 | 0.03 | 96 | 1014.9 |
| 20260510072422 | 67 | 270 | 0.0 | 0.0 | 0.00 | 0.45 | 0.03 | 96 | 1014.9 |
| 20260510071416 | 67 | 270 | 0.0 | 0.0 | 0.00 | 0.45 | 0.03 | 96 | 1014.5 |
| 20260510070916 | 67 | 270 | 0.0 | 0.0 | 0.00 | 0.45 | 0.03 | 96 | 1014.4 |
| 20260510070414 | 67 | 270 | 0.0 | 0.0 | 0.00 | 0.45 | 0.03 | 96 | 1014.3 |
| 20260510065912 | 67 | 270 | 0.0 | 0.0 | 0.00 | 0.45 | 0.03 | 96 | 1014.4 |
| 20260510065648 | 67 | 270 | 0.0 | 0.0 | 0.00 | 0.45 | 0.03 | 96 | 1014.4 |
| 20260510065451 | 67 | 270 | 0.0 | 1.0 | 0.00 | 0.45 | 0.03 | 96 | 1014.4 |
| 20260510065258 | 67 | 270 | 0.0 | 1.0 | 0.00 | 0.45 | 0.03 | 96 | 1014.2 |
| 20260510064658 | 67 | 270 | 0.0 | 0.0 | 0.00 | 0.45 | 0.03 | 96 | 1014.4 |
| 20260510064452 | 67 | 270 | 0.0 | 0.0 | 0.01 | 0.45 | 0.03 | 96 | 1014.3 |
| 20260510064255 | 67 | 270 | 0.0 | 0.0 | 0.01 | 0.45 | 0.03 | 96 | 1014.1 |
| 20260510064112 | 67 | 270 | 0.0 | 0.0 | 0.01 | 0.45 | 0.03 | 96 | 1014.0 |
| 20260510063500 | 67 | 270 | 0.0 | 0.0 | 0.01 | 0.45 | 0.03 | 96 | 1014.5 |
| 20260510061640 | 67 | 270 | 0.0 | 0.0 | 0.02 | 0.45 | 0.03 | 96 | 1014.9 |
| 20260510061458 | 67 | 270 | 0.0 | 0.0 | 0.03 | 0.45 | 0.03 | 96 | 1014.8 |
| 20260510061308 | 67 | 270 | 0.0 | 0.0 | 0.03 | 0.45 | 0.03 | 96 | 1014.5 |
| 20260510061119 | 67 | 270 | 0.0 | 0.0 | 0.02 | 0.44 | 0.02 | 95 | 1014.6 |
| 20260510060932 | 67 | 270 | 0.0 | 0.0 | 0.02 | 0.44 | 0.02 | 95 | 1014.6 |
| 20260510060746 | 67 | 270 | 0.0 | 0.0 | 0.02 | 0.44 | 0.02 | 96 | 1014.2 |
| 20260510060554 | 67 | 270 | 0.0 | 0.0 | 0.02 | 0.44 | 0.02 | 96 | 1014.0 |
| 20260510060412 | 67 | 270 | 0.0 | 0.0 | 0.02 | 0.44 | 0.02 | 96 | 1014.5 |
| 20260510060156 | 67 | 270 | 0.0 | 0.0 | 0.02 | 0.44 | 0.01 | 96 | 1014.7 |
| 20260510055603 | 67 | 270 | 0.0 | 0.0 | 0.01 | 0.43 | 0.01 | 95 | 1015.1 |
| 20260510035824 | 67 | 270 | 0.0 | 0.0 | 0.00 | 0.42 | 0.42 | 95 | 1014.7 |
| 20260510035321 | 67 | 270 | 0.0 | 2.0 | 0.00 | 0.42 | 0.42 | 95 | 1014.6 |
| 20260510034316 | 67 | 270 | 2.0 | 6.0 | 0.00 | 0.42 | 0.42 | 95 | 1014.8 |
| 20260510033813 | 67 | 270 | 2.0 | 6.0 | 0.00 | 0.42 | 0.42 | 95 | 1015.1 |
| 20260510033312 | 67 | 252 | 2.0 | 4.0 | 0.00 | 0.42 | 0.42 | 95 | 1015.1 |
| 20260510032817 | 67 | 250 | 2.0 | 3.0 | 0.00 | 0.42 | 0.42 | 95 | 1015.1 |
| 20260510032310 | 67 | 250 | 1.0 | 3.0 | 0.00 | 0.42 | 0.42 | 95 | 1015.1 |
| 20260510031817 | 67 | 250 | 0.0 | 2.0 | 0.00 | 0.42 | 0.42 | 95 | 1014.9 |
| 20260510031313 | 67 | 250 | 0.0 | 2.0 | 0.00 | 0.42 | 0.42 | 95 | 1014.7 |
| 20260510030808 | 67 | 250 | 1.0 | 2.0 | 0.00 | 0.42 | 0.42 | 95 | 1014.9 |
| 20260510030311 | 67 | 250 | 1.0 | 3.0 | 0.00 | 0.42 | 0.42 | 95 | 1014.8 |
| 20260510025805 | 67 | 250 | 1.0 | 3.0 | 0.00 | 0.42 | 0.42 | 95 | 1014.9 |
| 20260510025305 | 67 | 250 | 1.0 | 3.0 | 0.00 | 0.42 | 0.42 | 95 | 1014.9 |
| 20260510024801 | 67 | 250 | 0.0 | 2.0 | 0.00 | 0.42 | 0.42 | 95 | 1014.6 |
| 20260510024301 | 67 | 250 | 1.0 | 2.0 | 0.00 | 0.42 | 0.42 | 95 | 1014.6 |
| 20260510023802 | 67 | 250 | 1.0 | 2.0 | 0.00 | 0.42 | 0.42 | 95 | 1014.4 |
| 20260510023300 | 67 | 250 | 0.0 | 2.0 | 0.00 | 0.43 | 0.42 | 95 | 1014.3 |
| 20260510022306 | 68 | 250 | 0.0 | 2.0 | 0.00 | 0.43 | 0.42 | 95 | 1014.3 |
| 20260510021759 | 68 | 250 | 1.0 | 3.0 | 0.00 | 0.43 | 0.42 | 95 | 1014.4 |
| 20260510021256 | 67 | 250 | 1.0 | 3.0 | 0.01 | 0.43 | 0.42 | 95 | 1014.5 |
| 20260510020756 | 68 | 250 | 2.0 | 4.0 | 0.01 | 0.44 | 0.42 | 95 | 1014.2 |
| 20260510020256 | 68 | 250 | 2.0 | 4.0 | 0.01 | 0.44 | 0.42 | 95 | 1014.4 |
| 20260510015751 | 68 | 252 | 1.0 | 4.0 | 0.01 | 0.45 | 0.42 | 95 | 1014.4 |
| 20260510015254 | 68 | 252 | 2.0 | 4.0 | 0.01 | 0.45 | 0.42 | 95 | 1014.4 |
| 20260510014247 | 68 | 252 | 1.0 | 3.0 | 0.01 | 0.45 | 0.42 | 95 | 1014.2 |
| 20260510013746 | 68 | 252 | 2.0 | 4.0 | 0.01 | 0.45 | 0.42 | 95 | 1014.1 |
| 20260510013244 | 68 | 252 | 2.0 | 6.0 | 0.01 | 0.46 | 0.42 | 95 | 1014.2 |
| 20260510012834 | 68 | 179 | 2.0 | 6.0 | 0.01 | 0.46 | 0.42 | 95 | 1014.1 |
| 20260510012256 | 68 | 102 | 2.0 | 4.0 | 0.01 | 0.47 | 0.42 | 95 | 1014.1 |
| 20260510011307 | 68 | 196 | 3.0 | 6.0 | 0.00 | 0.46 | 0.41 | 95 | 1014.1 |
| 20260510010744 | 68 | 200 | 2.0 | 6.0 | 0.00 | 0.47 | 0.41 | 95 | 1014.1 |
| 20260510010237 | 68 | 202 | 1.0 | 4.0 | 0.01 | 0.48 | 0.41 | 95 | 1014.3 |
| 20260510005735 | 68 | 202 | 1.0 | 3.0 | 0.01 | 0.49 | 0.41 | 95 | 1014.1 |
| 20260510004736 | 68 | 202 | 2.0 | 4.0 | 0.02 | 0.51 | 0.41 | 95 | 1014.1 |
| 20260510003735 | 68 | 196 | 2.0 | 5.0 | 0.02 | 0.52 | 0.41 | 95 | 1013.8 |
| 20260510003234 | 69 | 196 | 2.0 | 5.0 | 0.02 | 0.52 | 0.41 | 95 | 1013.8 |
| 20260510002722 | 69 | 196 | 2.0 | 5.0 | 0.02 | 0.53 | 0.41 | 95 | 1013.9 |
| 20260510002216 | 69 | 197 | 1.0 | 4.0 | 0.02 | 0.53 | 0.41 | 95 | 1013.8 |
| 20260510001732 | 69 | 197 | 2.0 | 4.0 | 0.02 | 0.53 | 0.41 | 94 | 1013.9 |
| 20260510001222 | 69 | 197 | 2.0 | 4.0 | 0.02 | 0.53 | 0.41 | 94 | 1014.0 |
| 20260510000739 | 69 | 197 | 2.0 | 4.0 | 0.02 | 0.53 | 0.41 | 94 | 1013.9 |
| 20260509235708 | 69 | 198 | 1.0 | 3.0 | 0.01 | 0.52 | 0.40 | 95 | 1013.7 |
| 20260509235211 | 69 | 198 | 2.0 | 4.0 | 0.00 | 0.51 | 0.39 | 94 | 1013.8 |
| 20260509234709 | 69 | 197 | 1.0 | 4.0 | 0.00 | 0.51 | 0.39 | 94 | 1013.8 |
| 20260509234208 | 69 | 197 | 1.0 | 6.0 | 0.00 | 0.51 | 0.39 | 94 | 1013.7 |
| 20260509233704 | 69 | 197 | 2.0 | 6.0 | 0.00 | 0.51 | 0.39 | 94 | 1013.7 |
| 20260509233204 | 69 | 204 | 1.0 | 4.0 | 0.00 | 0.51 | 0.39 | 94 | 1013.6 |
| 20260509232703 | 69 | 204 | 0.0 | 3.0 | 0.00 | 0.51 | 0.39 | 94 | 1013.5 |
| 20260509232203 | 69 | 216 | 1.0 | 3.0 | 0.00 | 0.51 | 0.39 | 94 | 1013.6 |
| 20260509231705 | 69 | 216 | 1.0 | 3.0 | 0.00 | 0.51 | 0.39 | 94 | 1013.5 |
| 20260509231204 | 69 | 216 | 1.0 | 3.0 | 0.00 | 0.51 | 0.39 | 94 | 1013.4 |
| 20260509230701 | 69 | 216 | 1.0 | 4.0 | 0.01 | 0.51 | 0.39 | 94 | 1013.3 |
| 20260509230200 | 69 | 216 | 1.0 | 4.0 | 0.01 | 0.51 | 0.39 | 94 | 1013.2 |
| 20260509225700 | 69 | 216 | 0.0 | 2.0 | 0.01 | 0.51 | 0.39 | 94 | 1013.1 |
| 20260509225204 | 69 | 216 | 2.0 | 6.0 | 0.01 | 0.51 | 0.39 | 94 | 1013.2 |
| 20260509224658 | 69 | 216 | 2.0 | 6.0 | 0.01 | 0.51 | 0.39 | 94 | 1013.1 |
| 20260509224157 | 69 | 267 | 1.0 | 4.0 | 0.01 | 0.51 | 0.39 | 94 | 1013.1 |
| 20260509223658 | 69 | 267 | 2.0 | 4.0 | 0.01 | 0.51 | 0.39 | 94 | 1012.8 |
| 20260509223159 | 69 | 267 | 2.0 | 4.0 | 0.01 | 0.51 | 0.39 | 94 | 1013.0 |
| 20260509222659 | 69 | 267 | 1.0 | 3.0 | 0.01 | 0.51 | 0.39 | 94 | 1012.9 |
| 20260509221656 | 69 | 300 | 2.0 | 4.0 | 0.01 | 0.51 | 0.39 | 94 | 1013.1 |
| 20260509221153 | 69 | 300 | 2.0 | 4.0 | 0.01 | 0.51 | 0.39 | 94 | 1013.0 |
| 20260509220655 | 69 | 227 | 1.0 | 3.0 | 0.01 | 0.50 | 0.38 | 94 | 1012.8 |
| 20260509220151 | 69 | 227 | 2.0 | 3.0 | 0.01 | 0.50 | 0.38 | 94 | 1013.1 |
| 20260509215653 | 69 | 226 | 2.0 | 4.0 | 0.01 | 0.50 | 0.38 | 94 | 1013.1 |
| 20260509215147 | 69 | 226 | 0.0 | 4.0 | 0.01 | 0.50 | 0.38 | 94 | 1013.1 |
| 20260509214641 | 69 | 209 | 0.0 | 2.0 | 0.01 | 0.50 | 0.38 | 94 | 1012.9 |
| 20260509214136 | 69 | 209 | 0.0 | 2.0 | 0.01 | 0.50 | 0.38 | 94 | 1012.6 |
| 20260509213636 | 69 | 209 | 1.0 | 3.0 | 0.01 | 0.50 | 0.38 | 94 | 1012.3 |
| 20260509213135 | 69 | 209 | 1.0 | 3.0 | 0.01 | 0.50 | 0.38 | 94 | 1012.5 |
| 20260509212636 | 69 | 209 | 1.0 | 2.0 | 0.01 | 0.50 | 0.38 | 94 | 1012.6 |
| 20260509212136 | 69 | 209 | 1.0 | 3.0 | 0.01 | 0.50 | 0.38 | 94 | 1012.7 |
| 20260509211634 | 69 | 209 | 2.0 | 5.0 | 0.01 | 0.50 | 0.38 | 94 | 1012.8 |